QPF
0.09 0.12 0.18 0.26 0.25 0.16 0.13 0.11 0.09 0.10 0.13 0.14 0.13 0.11 0.12 0.13 0.13 0.14 0.14 0.10 0.07 0.07 0.07 0.06 0.07 0.06 0.05 0.04 0.03 0.02 0.02 0.02 0.01 0.01 0.01 0.01 0.01 0.01 0.01 0.01 0.01 0.01 0.02
0.12 0.11 0.15 0.24 0.22 0.15 0.12 0.12 0.11 0.10 0.11 0.14 0.15 0.12 0.12 0.12 0.12 0.14 0.14 0.14 0.12 0.09 0.07 0.06 0.07 0.08 0.07 0.06 0.04 0.03 0.02 0.02 0.02 0.02 0.03 0.02 0.02 0.01 0.01 0.02 0.02 0.02 0.02
0.15 0.14 0.14 0.21 0.18 0.15 0.13 0.12 0.12 0.11 0.10 0.12 0.16 0.16 0.14 0.15 0.15 0.15 0.15 0.15 0.14 0.13 0.11 0.07 0.05 0.07 0.09 0.08 0.06 0.03 0.02 0.02 0.01 0.02 0.03 0.04 0.02 0.01 0.01 0.01 0.02 0.02 0.02
0.18 0.15 0.13 0.16 0.16 0.15 0.15 0.13 0.11 0.11 0.10 0.11 0.15 0.17 0.14 0.13 0.12 0.12 0.14 0.15 0.15 0.16 0.14 0.12 0.08 0.05 0.06 0.07 0.09 0.08 0.05 0.04 0.03 0.02 0.03 0.04 0.04 0.03 0.03 0.02 0.02 0.02 0.03
0.17 0.16 0.13 0.13 0.14 0.11 0.11 0.12 0.12 0.10 0.09 0.10 0.13 0.14 0.13 0.11 0.10 0.10 0.10 0.12 0.13 0.14 0.15 0.14 0.12 0.09 0.06 0.05 0.06 0.06 0.06 0.06 0.05 0.04 0.04 0.04 0.05 0.05 0.05 0.05 0.04 0.05 0.05
0.17 0.16 0.11 0.12 0.16 0.11 0.09 0.12 0.12 0.12 0.11 0.10 0.11 0.12 0.10 0.09 0.10 0.11 0.11 0.12 0.13 0.13 0.13 0.14 0.12 0.11 0.09 0.07 0.06 0.06 0.05 0.05 0.05 0.04 0.03 0.03 0.03 0.03 0.04 0.05 0.04 0.04 0.05
0.17 0.15 0.13 0.18 0.19 0.13 0.12 0.14 0.14 0.18 0.16 0.12 0.12 0.15 0.12 0.09 0.09 0.10 0.11 0.13 0.15 0.16 0.16 0.15 0.13 0.11 0.10 0.10 0.08 0.08 0.07 0.05 0.05 0.04 0.04 0.03 0.03 0.03 0.04 0.05 0.05 0.05 0.05
0.14 0.14 0.14 0.16 0.13 0.10 0.12 0.13 0.14 0.15 0.12 0.10 0.11 0.13 0.14 0.12 0.09 0.08 0.08 0.09 0.10 0.11 0.13 0.15 0.16 0.15 0.12 0.12 0.10 0.09 0.08 0.07 0.07 0.06 0.06 0.06 0.05 0.04 0.05 0.05 0.06 0.07 0.07
0.10 0.11 0.11 0.11 0.08 0.07 0.07 0.07 0.08 0.09 0.08 0.06 0.05 0.07 0.08 0.08 0.08 0.08 0.07 0.07 0.07 0.07 0.08 0.09 0.12 0.14 0.15 0.15 0.14 0.12 0.10 0.09 0.08 0.08 0.08 0.07 0.07 0.07 0.07 0.08 0.08 0.09 0.10
0.08 0.09 0.08 0.07 0.06 0.04 0.04 0.03 0.03 0.04 0.04 0.04 0.04 0.04 0.04 0.04 0.04 0.06 0.06 0.07 0.07 0.07 0.07 0.06 0.07 0.10 0.13 0.16 0.18 0.18 0.15 0.13 0.11 0.10 0.10 0.10 0.10 0.10 0.10 0.10 0.10 0.10 0.11
0.06 0.06 0.05 0.04 0.04 0.04 0.03 0.03 0.03 0.04 0.04 0.03 0.03 0.03 0.03 0.03 0.04 0.04 0.05 0.05 0.06 0.07 0.07 0.06 0.06 0.07 0.09 0.11 0.14 0.16 0.17 0.17 0.16 0.15 0.15 0.14 0.14 0.15 0.15 0.16 0.14 0.12 0.12
0.05 0.04 0.02 0.01 0.02 0.03 0.04 0.04 0.04 0.05 0.05 0.04 0.04 0.04 0.04 0.04 0.05 0.06 0.05 0.05 0.05 0.06 0.06 0.05 0.05 0.05 0.07 0.09 0.10 0.12 0.13 0.15 0.16 0.16 0.17 0.16 0.16 0.16 0.17 0.19 0.18 0.15 0.14
0.03 0.03 0.02 0.01 0.01 0.01 0.02 0.02 0.03 0.04 0.04 0.04 0.04 0.04 0.03 0.03 0.04 0.06 0.07 0.06 0.07 0.07 0.07 0.06 0.05 0.05 0.05 0.07 0.08 0.08 0.09 0.10 0.11 0.11 0.12 0.13 0.15 0.17 0.17 0.18 0.18 0.18 0.18
0.03 0.02 0.01 0.01 0.00 0.01 0.01 0.01 0.02 0.03 0.04 0.03 0.03 0.03 0.03 0.03 0.03 0.04 0.05 0.07 0.07 0.09 0.09 0.07 0.06 0.06 0.06 0.06 0.06 0.07 0.08 0.08 0.08 0.08 0.09 0.10 0.10 0.11 0.12 0.14 0.15 0.16 0.16
0.02 0.02 0.02 0.03 0.01 0.01 0.02 0.02 0.02 0.02 0.03 0.03 0.03 0.02 0.03 0.03 0.03 0.04 0.05 0.07 0.07 0.08 0.08 0.08 0.07 0.07 0.07 0.07 0.07 0.07 0.08 0.07 0.07 0.07 0.07 0.07 0.09 0.10 0.12 0.12 0.12 0.12 0.14
0.01 0.02 0.02 0.04 0.02 0.02 0.02 0.01 0.02 0.02 0.03 0.04 0.03 0.03 0.04 0.04 0.04 0.04 0.06 0.06 0.07 0.08 0.07 0.07 0.07 0.07 0.07 0.07 0.08 0.07 0.07 0.08 0.08 0.07 0.07 0.07 0.09 0.10 0.12 0.12 0.13 0.13 0.14
0.01 0.02 0.02 0.03 0.02 0.01 0.01 0.01 0.02 0.01 0.02 0.03 0.03 0.04 0.04 0.05 0.04 0.05 0.05 0.06 0.07 0.09 0.09 0.06 0.05 0.06 0.06 0.08 0.07 0.08 0.08 0.08 0.08 0.08 0.08 0.08 0.09 0.11 0.11 0.13 0.14 0.13 0.14
0.00 0.01 0.03 0.02 0.02 0.01 0.01 0.01 0.01 0.01 0.01 0.03 0.05 0.04 0.04 0.05 0.05 0.05 0.04 0.05 0.07 0.08 0.08 0.06 0.05 0.06 0.06 0.07 0.07 0.08 0.08 0.07 0.07 0.07 0.07 0.07 0.07 0.09 0.10 0.12 0.13 0.13 0.14
0.01 0.01 0.01 0.03 0.03 0.03 0.03 0.02 0.02 0.03 0.04 0.05 0.06 0.06 0.05 0.06 0.06 0.05 0.05 0.05 0.04 0.05 0.05 0.04 0.04 0.05 0.06 0.07 0.06 0.07 0.07 0.07 0.06 0.06 0.07 0.07 0.07 0.08 0.10 0.10 0.11 0.12 0.13
0.01 0.01 0.01 0.01 0.02 0.04 0.04 0.03 0.04 0.05 0.05 0.04 0.05 0.05 0.05 0.05 0.04 0.04 0.04 0.03 0.02 0.03 0.03 0.03 0.03 0.03 0.04 0.06 0.07 0.07 0.07 0.07 0.07 0.08 0.09 0.10 0.09 0.10 0.10 0.09 0.11 0.12 0.12
0.01 0.01 0.01 0.01 0.01 0.01 0.01 0.02 0.03 0.04 0.04 0.03 0.03 0.03 0.03 0.04 0.03 0.03 0.02 0.02 0.02 0.02 0.02 0.02 0.03 0.04 0.05 0.06 0.06 0.08 0.09 0.08 0.08 0.08 0.09 0.10 0.13 0.12 0.11 0.11 0.12 0.13 0.13
0.01 0.01 0.01 0.01 0.01 0.01 0.01 0.01 0.01 0.02 0.03 0.03 0.03 0.02 0.01 0.02 0.03 0.03 0.04 0.02 0.02 0.02 0.02 0.03 0.03 0.04 0.05 0.06 0.07 0.09 0.10 0.11 0.09 0.08 0.08 0.10 0.11 0.12 0.12 0.13 0.15 0.16 0.15
0.01 0.01 0.01 0.01 0.01 0.01 0.01 0.01 0.01 0.01 0.01 0.02 0.02 0.01 0.01 0.01 0.02 0.03 0.04 0.04 0.03 0.02 0.02 0.03 0.04 0.05 0.06 0.07 0.08 0.09 0.10 0.11 0.11 0.12 0.12 0.13 0.13 0.14 0.14 0.14 0.15 0.15 0.14
0.01 0.01 0.01 0.01 0.01 0.01 0.01 0.01 0.01 0.01 0.00 0.00 0.01 0.01 0.01 0.01 0.01 0.02 0.03 0.04 0.04 0.03 0.03 0.03 0.04 0.05 0.06 0.06 0.07 0.07 0.08 0.09 0.10 0.12 0.14 0.14 0.14 0.13 0.14 0.15 0.15 0.15 0.15
0.00 0.00 0.00 0.00 0.00 0.00 0.00 0.00 0.00 0.00 0.00 0.00 0.00 0.00 0.01 0.01 0.01 0.01 0.02 0.03 0.04 0.05 0.04 0.03 0.04 0.05 0.05 0.06 0.07 0.07 0.07 0.08 0.09 0.11 0.11 0.10 0.10 0.11 0.11 0.11 0.12 0.12 0.14
0.00 0.00 0.00 0.00 0.00 0.00 0.00 0.00 0.00 0.00 0.00 0.00 0.00 0.00 0.00 0.01 0.01 0.01 0.01 0.02 0.03 0.04 0.04 0.04 0.04 0.04 0.04 0.06 0.07 0.07 0.08 0.08 0.09 0.09 0.10 0.10 0.10 0.10 0.10 0.09 0.10 0.10 0.10
MSLP
1012.16 1011.43 1010.82 1010.36 1010.07 1009.94 1009.97 1010.11 1010.32 1010.55 1010.78 1010.96 1011.10 1011.17 1011.19 1011.17 1011.13 1011.09 1011.07 1011.08 1011.15 1011.29 1011.52 1011.85 1012.29 1012.82 1013.43 1014.11 1014.81 1015.52 1016.18 1016.77 1017.28 1017.69 1018.01 1018.26 1018.46 1018.62 1018.78 1018.95 1019.12 1019.30 1019.49
1013.05 1012.25 1011.54 1010.96 1010.54 1010.30 1010.22 1010.27 1010.41 1010.60 1010.80 1010.96 1011.06 1011.10 1011.06 1010.97 1010.83 1010.69 1010.56 1010.48 1010.46 1010.55 1010.74 1011.06 1011.49 1012.03 1012.66 1013.35 1014.07 1014.79 1015.47 1016.08 1016.61 1017.06 1017.44 1017.75 1018.02 1018.27 1018.51 1018.76 1019.02 1019.28 1019.53
1014.13 1013.33 1012.57 1011.92 1011.40 1011.03 1010.82 1010.75 1010.79 1010.89 1011.00 1011.10 1011.14 1011.11 1010.99 1010.80 1010.56 1010.30 1010.06 1009.87 1009.77 1009.78 1009.92 1010.19 1010.61 1011.14 1011.77 1012.46 1013.19 1013.92 1014.61 1015.25 1015.81 1016.31 1016.74 1017.12 1017.47 1017.80 1018.14 1018.48 1018.84 1019.19 1019.53
1015.25 1014.52 1013.79 1013.11 1012.52 1012.05 1011.72 1011.51 1011.41 1011.38 1011.39 1011.38 1011.32 1011.20 1010.99 1010.70 1010.35 1009.98 1009.62 1009.32 1009.12 1009.03 1009.10 1009.32 1009.68 1010.19 1010.80 1011.48 1012.21 1012.94 1013.65 1014.32 1014.92 1015.46 1015.94 1016.38 1016.80 1017.22 1017.64 1018.07 1018.52 1018.97 1019.40
1016.25 1015.67 1015.03 1014.39 1013.78 1013.24 1012.79 1012.44 1012.19 1012.02 1011.88 1011.75 1011.59 1011.36 1011.05 1010.67 1010.22 1009.75 1009.28 1008.87 1008.56 1008.37 1008.34 1008.48 1008.78 1009.23 1009.80 1010.46 1011.17 1011.91 1012.64 1013.32 1013.96 1014.54 1015.07 1015.56 1016.03 1016.50 1016.99 1017.50 1018.03 1018.56 1019.09
1017.04 1016.64 1016.15 1015.59 1015.00 1014.42 1013.88 1013.41 1013.02 1012.70 1012.42 1012.16 1011.88 1011.56 1011.17 1010.70 1010.18 1009.62 1009.07 1008.56 1008.14 1007.84 1007.70 1007.73 1007.94 1008.31 1008.82 1009.43 1010.13 1010.86 1011.60 1012.31 1012.97 1013.58 1014.15 1014.67 1015.17 1015.67 1016.20 1016.75 1017.34 1017.96 1018.58
1017.54 1017.35 1017.02 1016.58 1016.04 1015.45 1014.86 1014.29 1013.77 1013.31 1012.91 1012.53 1012.16 1011.76 1011.30 1010.79 1010.21 1009.60 1008.98 1008.39 1007.87 1007.46 1007.20 1007.11 1007.20 1007.46 1007.88 1008.44 1009.09 1009.81 1010.55 1011.27 1011.96 1012.60 1013.18 1013.72 1014.23 1014.74 1015.28 1015.86 1016.49 1017.17 1017.88
1017.77 1017.76 1017.60 1017.27 1016.81 1016.24 1015.61 1014.97 1014.35 1013.79 1013.27 1012.81 1012.36 1011.91 1011.42 1010.89 1010.30 1009.66 1008.99 1008.34 1007.73 1007.21 1006.82 1006.59 1006.55 1006.68 1007.00 1007.47 1008.07 1008.75 1009.48 1010.22 1010.92 1011.58 1012.17 1012.72 1013.23 1013.73 1014.27 1014.85 1015.51 1016.23 1017.01
1017.77 1017.90 1017.87 1017.66 1017.26 1016.72 1016.08 1015.40 1014.71 1014.07 1013.48 1012.95 1012.46 1011.98 1011.50 1010.97 1010.39 1009.75 1009.06 1008.36 1007.68 1007.05 1006.53 1006.16 1005.96 1005.95 1006.13 1006.50 1007.02 1007.66 1008.37 1009.11 1009.83 1010.50 1011.11 1011.67 1012.18 1012.68 1013.20 1013.79 1014.45 1015.21 1016.04
1017.63 1017.85 1017.91 1017.77 1017.44 1016.93 1016.29 1015.58 1014.85 1014.16 1013.52 1012.95 1012.44 1011.97 1011.49 1010.99 1010.43 1009.81 1009.12 1008.39 1007.64 1006.92 1006.27 1005.74 1005.38 1005.21 1005.25 1005.49 1005.92 1006.50 1007.18 1007.92 1008.65 1009.35 1009.99 1010.56 1011.09 1011.60 1012.12 1012.71 1013.38 1014.16 1015.04
1017.45 1017.70 1017.80 1017.70 1017.40 1016.91 1016.28 1015.56 1014.81 1014.09 1013.43 1012.84 1012.32 1011.85 1011.40 1010.93 1010.40 1009.80 1009.12 1008.36 1007.56 1006.75 1005.97 1005.30 1004.78 1004.44 1004.32 1004.43 1004.75 1005.25 1005.90 1006.62 1007.38 1008.11 1008.79 1009.41 1009.97 1010.51 1011.05 1011.65 1012.34 1013.14 1014.05
1017.31 1017.54 1017.64 1017.55 1017.25 1016.78 1016.15 1015.43 1014.68 1013.94 1013.27 1012.67 1012.14 1011.67 1011.23 1010.78 1010.27 1009.68 1009.00 1008.23 1007.37 1006.48 1005.60 1004.80 1004.12 1003.62 1003.34 1003.31 1003.51 1003.93 1004.53 1005.24 1006.01 1006.79 1007.53 1008.21 1008.83 1009.42 1010.00 1010.63 1011.34 1012.15 1013.08
1017.26 1017.45 1017.51 1017.39 1017.09 1016.61 1015.99 1015.28 1014.52 1013.78 1013.09 1012.47 1011.93 1011.45 1011.00 1010.54 1010.03 1009.45 1008.76 1007.96 1007.08 1006.12 1005.16 1004.23 1003.42 1002.77 1002.35 1002.17 1002.25 1002.58 1003.11 1003.80 1004.58 1005.40 1006.20 1006.96 1007.66 1008.32 1008.97 1009.64 1010.38 1011.20 1012.14
1017.31 1017.43 1017.44 1017.28 1016.96 1016.48 1015.86 1015.16 1014.41 1013.66 1012.96 1012.32 1011.74 1011.22 1010.73 1010.24 1009.72 1009.11 1008.41 1007.59 1006.67 1005.68 1004.64 1003.63 1002.71 1001.94 1001.38 1001.07 1001.02 1001.24 1001.70 1002.35 1003.13 1003.98 1004.84 1005.68 1006.47 1007.21 1007.93 1008.67 1009.44 1010.28 1011.22
1017.42 1017.48 1017.42 1017.23 1016.89 1016.40 1015.80 1015.10 1014.37 1013.62 1012.90 1012.23 1011.60 1011.03 1010.48 1009.93 1009.35 1008.71 1007.97 1007.14 1006.20 1005.18 1004.11 1003.04 1002.04 1001.17 1000.50 1000.06 999.89 1000.00 1000.37 1000.96 1001.71 1002.57 1003.47 1004.38 1005.25 1006.09 1006.89 1007.69 1008.51 1009.37 1010.31
1017.53 1017.53 1017.43 1017.20 1016.85 1016.37 1015.79 1015.12 1014.40 1013.67 1012.93 1012.22 1011.54 1010.88 1010.25 1009.62 1008.97 1008.27 1007.50 1006.65 1005.70 1004.67 1003.59 1002.50 1001.46 1000.52 999.76 999.21 998.93 998.92 999.18 999.68 1000.38 1001.22 1002.14 1003.09 1004.04 1004.95 1005.84 1006.71 1007.58 1008.48 1009.42
1017.58 1017.54 1017.40 1017.16 1016.81 1016.35 1015.81 1015.19 1014.51 1013.79 1013.04 1012.29 1011.55 1010.81 1010.08 1009.35 1008.61 1007.85 1007.04 1006.16 1005.21 1004.20 1003.13 1002.05 1000.99 1000.02 999.19 998.56 998.16 998.03 998.18 998.58 999.20 999.99 1000.89 1001.86 1002.86 1003.84 1004.81 1005.75 1006.69 1007.63 1008.59
1017.52 1017.46 1017.30 1017.06 1016.73 1016.32 1015.84 1015.28 1014.65 1013.96 1013.22 1012.44 1011.63 1010.80 1009.97 1009.14 1008.31 1007.46 1006.60 1005.71 1004.76 1003.78 1002.75 1001.69 1000.65 999.67 998.81 998.11 997.62 997.38 997.40 997.68 998.20 998.92 999.78 1000.75 1001.77 1002.80 1003.84 1004.86 1005.86 1006.86 1007.86
1017.34 1017.26 1017.11 1016.88 1016.60 1016.26 1015.85 1015.37 1014.81 1014.16 1013.44 1012.63 1011.77 1010.86 1009.93 1008.99 1008.06 1007.14 1006.22 1005.30 1004.37 1003.41 1002.43 1001.42 1000.42 999.46 998.59 997.85 997.29 996.96 996.87 997.04 997.45 998.08 998.88 999.81 1000.84 1001.91 1003.00 1004.09 1005.17 1006.24 1007.29
1017.07 1016.98 1016.84 1016.65 1016.43 1016.16 1015.84 1015.45 1014.96 1014.37 1013.67 1012.85 1011.94 1010.96 1009.94 1008.90 1007.87 1006.87 1005.90 1004.96 1004.03 1003.10 1002.17 1001.22 1000.28 999.36 998.50 997.76 997.16 996.76 996.58 996.65 996.97 997.50 998.24 999.13 1000.14 1001.23 1002.37 1003.52 1004.67 1005.81 1006.93
1016.74 1016.65 1016.53 1016.39 1016.23 1016.04 1015.82 1015.52 1015.11 1014.58 1013.90 1013.08 1012.14 1011.10 1010.00 1008.87 1007.76 1006.68 1005.66 1004.69 1003.76 1002.86 1001.97 1001.08 1000.20 999.35 998.53 997.81 997.21 996.78 996.55 996.55 996.79 997.25 997.92 998.76 999.75 1000.83 1001.99 1003.19 1004.40 1005.60 1006.80
1016.41 1016.33 1016.23 1016.13 1016.04 1015.94 1015.80 1015.58 1015.24 1014.76 1014.12 1013.31 1012.35 1011.26 1010.10 1008.90 1007.72 1006.58 1005.50 1004.50 1003.57 1002.68 1001.84 1001.01 1000.20 999.42 998.67 998.00 997.43 997.00 996.76 996.73 996.92 997.33 997.94 998.74 999.69 1000.76 1001.92 1003.13 1004.37 1005.62 1006.87
1016.12 1016.05 1015.98 1015.93 1015.89 1015.86 1015.78 1015.63 1015.35 1014.92 1014.31 1013.51 1012.54 1011.44 1010.24 1009.00 1007.76 1006.57 1005.46 1004.43 1003.49 1002.62 1001.80 1001.03 1000.29 999.58 998.91 998.31 997.80 997.43 997.21 997.19 997.36 997.74 998.32 999.07 999.97 1001.01 1002.14 1003.34 1004.58 1005.85 1007.12
1015.91 1015.85 1015.80 1015.79 1015.79 1015.80 1015.77 1015.66 1015.42 1015.02 1014.44 1013.66 1012.71 1011.61 1010.41 1009.15 1007.90 1006.69 1005.55 1004.51 1003.55 1002.69 1001.89 1001.16 1000.48 999.84 999.25 998.74 998.32 998.01 997.86 997.87 998.06 998.44 998.99 999.70 1000.56 1001.54 1002.62 1003.77 1004.98 1006.22 1007.47
1015.76 1015.71 1015.69 1015.69 1015.72 1015.74 1015.73 1015.64 1015.43 1015.05 1014.50 1013.76 1012.84 1011.77 1010.60 1009.38 1008.14 1006.94 1005.80 1004.75 1003.79 1002.92 1002.13 1001.42 1000.78 1000.20 999.68 999.25 998.92 998.71 998.63 998.71 998.94 999.33 999.87 1000.56 1001.37 1002.28 1003.29 1004.37 1005.50 1006.67 1007.87
1015.65 1015.63 1015.62 1015.63 1015.65 1015.67 1015.65 1015.56 1015.34 1014.99 1014.47 1013.77 1012.92 1011.92 1010.82 1009.66 1008.48 1007.31 1006.20 1005.16 1004.20 1003.32 1002.53 1001.82 1001.19 1000.64 1000.18 999.81 999.56 999.43 999.43 999.58 999.87 1000.29 1000.84 1001.50 1002.27 1003.12 1004.04 1005.02 1006.06 1007.14 1008.25
Thickness
5574 5580 5586 5592 5598 5603 5607 5611 5615 5619 5622 5625 5627 5630 5632 5635 5638 5642 5644 5646 5648 5650 5650 5651 5650 5649 5648 5647 5646 5644 5642 5640 5639 5636 5636 5638 5639 5639 5639 5638 5637 5636 5635
5568 5575 5580 5584 5589 5593 5597 5602 5605 5610 5614 5617 5619 5621 5623 5626 5630 5632 5635 5638 5640 5642 5643 5644 5644 5643 5642 5640 5639 5637 5635 5633 5631 5628 5626 5627 5630 5632 5632 5630 5629 5628 5627
5563 5568 5572 5576 5580 5584 5588 5593 5596 5601 5605 5608 5610 5612 5613 5617 5620 5623 5627 5630 5633 5635 5636 5637 5637 5637 5636 5635 5633 5632 5629 5627 5624 5623 5620 5618 5620 5622 5623 5622 5621 5619 5618
5559 5562 5566 5570 5572 5575 5580 5584 5589 5593 5596 5599 5602 5603 5604 5607 5611 5615 5618 5622 5625 5627 5629 5630 5630 5631 5630 5629 5627 5626 5623 5621 5618 5616 5615 5613 5612 5608 5611 5613 5612 5610 5608
5552 5556 5560 5564 5566 5569 5573 5579 5583 5586 5589 5590 5592 5594 5596 5599 5602 5606 5610 5614 5617 5619 5620 5621 5622 5622 5622 5621 5620 5618 5616 5615 5612 5609 5607 5604 5602 5600 5598 5601 5602 5600 5599
5546 5549 5552 5558 5561 5564 5567 5571 5575 5578 5580 5582 5584 5586 5589 5592 5595 5598 5601 5604 5608 5611 5612 5613 5614 5615 5615 5614 5613 5611 5609 5607 5605 5602 5600 5598 5595 5593 5590 5589 5590 5590 5590
5540 5543 5547 5551 5555 5557 5560 5564 5568 5570 5572 5575 5577 5579 5582 5585 5589 5592 5594 5597 5600 5603 5604 5605 5606 5607 5607 5606 5605 5603 5601 5599 5597 5594 5592 5591 5590 5588 5584 5581 5579 5577 5576
5536 5539 5541 5544 5548 5550 5553 5557 5560 5563 5565 5568 5570 5573 5575 5579 5582 5584 5586 5589 5592 5594 5595 5596 5598 5599 5599 5598 5598 5595 5594 5592 5589 5587 5585 5584 5583 5580 5576 5574 5569 5566 5565
5532 5534 5536 5538 5541 5543 5546 5550 5553 5556 5559 5561 5564 5567 5569 5570 5573 5576 5578 5580 5583 5586 5586 5587 5588 5590 5591 5591 5590 5588 5586 5585 5582 5580 5577 5575 5574 5572 5570 5567 5563 5559 5557
5528 5530 5531 5533 5534 5536 5539 5543 5546 5548 5551 5554 5556 5558 5559 5562 5565 5568 5570 5572 5574 5576 5577 5578 5579 5580 5581 5581 5580 5579 5578 5576 5574 5571 5569 5566 5564 5562 5561 5558 5556 5553 5550
5525 5525 5526 5528 5529 5531 5533 5535 5538 5542 5545 5547 5548 5549 5551 5554 5557 5560 5562 5563 5565 5566 5567 5568 5570 5571 5571 5571 5570 5569 5568 5567 5564 5561 5558 5557 5554 5553 5551 5548 5546 5545 5542
5523 5523 5523 5524 5525 5526 5527 5529 5532 5535 5538 5540 5541 5543 5545 5547 5549 5551 5553 5555 5556 5557 5558 5558 5560 5560 5561 5561 5560 5559 5558 5555 5553 5551 5548 5547 5545 5543 5541 5539 5538 5537 5536
5521 5520 5520 5522 5522 5523 5523 5525 5527 5529 5531 5533 5535 5536 5538 5540 5541 5543 5544 5546 5547 5548 5549 5549 5551 5551 5550 5551 5551 5549 5547 5544 5542 5539 5537 5536 5533 5531 5530 5529 5528 5527 5526
5519 5518 5518 5519 5519 5519 5520 5521 5522 5524 5526 5528 5529 5530 5531 5532 5533 5535 5537 5538 5539 5541 5541 5541 5541 5541 5540 5540 5540 5538 5536 5534 5531 5528 5526 5524 5521 5520 5519 5518 5517 5516 5514
5518 5517 5516 5516 5516 5515 5516 5517 5518 5519 5521 5521 5522 5523 5524 5526 5527 5528 5529 5529 5530 5531 5531 5531 5530 5530 5529 5529 5528 5527 5525 5522 5519 5516 5515 5513 5511 5510 5508 5507 5506 5504 5503
5518 5517 5516 5514 5513 5513 5513 5514 5514 5515 5516 5516 5517 5518 5520 5520 5520 5521 5520 5520 5519 5519 5519 5519 5518 5519 5519 5519 5517 5516 5513 5511 5509 5505 5503 5502 5500 5499 5497 5496 5495 5494 5492
5517 5516 5514 5513 5512 5512 5512 5511 5512 5512 5513 5513 5514 5514 5514 5514 5513 5512 5511 5509 5509 5508 5508 5508 5507 5507 5507 5507 5507 5505 5502 5500 5498 5495 5493 5492 5490 5488 5486 5485 5484 5483 5483
5518 5516 5513 5512 5512 5511 5510 5510 5510 5510 5510 5509 5510 5509 5508 5507 5505 5504 5502 5500 5499 5498 5497 5496 5496 5495 5496 5496 5495 5494 5492 5489 5487 5486 5484 5481 5480 5478 5477 5475 5473 5472 5472
5520 5517 5515 5513 5511 5509 5509 5508 5507 5506 5506 5505 5504 5503 5501 5500 5498 5496 5494 5492 5491 5489 5487 5486 5485 5484 5484 5485 5485 5484 5482 5480 5479 5477 5474 5472 5471 5470 5468 5465 5463 5462 5461
5518 5515 5513 5511 5509 5507 5506 5505 5503 5502 5500 5499 5497 5496 5494 5492 5490 5489 5487 5485 5483 5481 5479 5477 5475 5474 5474 5475 5475 5474 5473 5471 5470 5468 5466 5464 5463 5461 5458 5455 5453 5452 5450
5516 5514 5511 5508 5507 5505 5503 5501 5499 5497 5495 5493 5491 5490 5488 5486 5484 5482 5480 5478 5476 5474 5471 5469 5467 5465 5464 5464 5465 5464 5462 5461 5460 5458 5456 5455 5454 5453 5450 5447 5445 5445 5442
5513 5511 5507 5505 5503 5501 5499 5497 5494 5492 5490 5488 5486 5483 5481 5479 5478 5475 5473 5470 5468 5466 5463 5460 5458 5456 5455 5454 5454 5454 5453 5452 5450 5449 5448 5447 5445 5443 5440 5438 5437 5435 5432
5510 5507 5504 5500 5498 5496 5495 5492 5490 5487 5484 5482 5479 5476 5474 5472 5470 5467 5465 5462 5460 5457 5454 5451 5449 5448 5446 5445 5445 5445 5445 5443 5441 5440 5439 5438 5436 5433 5430 5429 5427 5424 5422
5505 5502 5499 5496 5493 5491 5489 5487 5485 5482 5479 5476 5472 5470 5467 5464 5461 5459 5457 5454 5451 5449 5446 5444 5442 5440 5439 5437 5436 5436 5435 5434 5432 5430 5428 5427 5425 5423 5420 5417 5415 5413 5412
5501 5498 5495 5493 5490 5487 5484 5482 5478 5475 5472 5469 5465 5462 5459 5456 5453 5450 5448 5446 5443 5440 5438 5435 5433 5431 5431 5429 5428 5427 5426 5424 5422 5420 5417 5415 5413 5410 5407 5405 5404 5402 5401
5496 5493 5490 5488 5485 5482 5479 5476 5473 5470 5467 5463 5459 5455 5451 5448 5445 5442 5440 5439 5436 5434 5431 5428 5425 5424 5423 5422 5421 5419 5418 5416 5414 5410 5406 5403 5401 5399 5397 5395 5394 5392 5391